User: anonymous   Login
Location: Beacon Field Observatory
(38.7700°N, 77.0829°W)
Time: 00:52:30
(UTC-05:00)
Language:

FALCONSAT 3 - Orbit

View from above orbital plane
View from above orbital plane
View from above satellite
View from above satellite

Ground track
Ground track

The orbit data is extracted from the following two-line orbital elements,

1 30776U 07006E   19341.68108415  .00002035  00000-0  56520-4 0  9999
2 30776  35.4353  72.5011 0003021 241.3989 118.6434 15.36891982707155
Epoch (UTC): 07 December 2019 16:20:45
Eccentricity: 0.0003021
inclination: 35.4353°
perigee height: 453 km
apogee height: 457 km
right ascension of ascending node: 72.5011°
argument of perigee: 241.3989°
revolutions per day: 15.36891982
mean anomaly at epoch: 118.6434°
orbit number at epoch: 70715

The dashed part of the orbit path shows where the satellite is in the earth's shadow,  

DLR